NIMBUS 2 DEB, 28621

Orbit data source: Space-Track

NIMBUS 2 DEB, 28621 is space debris in SSO originally from a launch on Sun, 15 May 1966 UTC launched from the Air Force Western Test Range (AFWTR). Debris objects in space refer to the collection of defunct objects orbiting the Earth. Examples of debris include non-operational satellites, rocket bodies, and fragments generated from explosions, collisions, or faulty payload assembly.

Loading next visibility...
Identifier
28621, 1966-040AM
Orbit
SSO
Country
Flag of USUS
Related business
Manufacturer
Unknown
Mission
Spacecraft
Bus & Motor
Unknown
Mass
Unknown
Launch date (UTC)
1966-05-15 (60 years ago)
Launch vehicle
Unknown
Launch site
Air Force Western Test Range (AFWTR)
Object type
Payload
Rocket body
Debris
Shape & HBR
Unknown shape, 0.1 m
Radar Cross Section
Small (<0.1 m²)

Expand to show TLE details & history
Last TLE update: 2 days ago

TLE from 2 days ago
0 NIMBUS 2 DEB
1 28621U 66040AM  26261.15670086  .00006152  00000-0  22533-2 0  9996
2 28621 100.2516 152.9430 0031019 329.6032  30.3348 14.33033583730025
Epoch: 2026-09-18T03:45Z
TLE epoch observation values (Epoch: 2026-09-18T03:45:38.954Z)
Latitude
0.00008°
Longitude
99.44705°
Altitude
765.333 km
Speed
7.482 km/s
True Right ascension
10h 11m 46s
True Declination
0° 00' 00"
Sunlit
Object was in daylight at epoch
Visualization orbit readout
Latitude
Unknown
Longitude
Unknown
Altitude
Unknown
Speed
Unknown
Apparent Right ascension
Unknown
Apparent Declination
Unknown
Sunlit
N/A
Visualization observer readout
Local Sidereal Time
21:22:25
Azimuth
Unknown
Elevation
Unknown
Doppler factor
Unknown
Orbital elements
Apogee altitude
801.031 km
Perigee altitude
756.63 km
Semi-major axis
7,156.967 km
Eccentricity
0.0031
Inclination
100.2516°
RAAN
152.943°
Arg. of periapsis
329.6032°
True anomaly
30.51492°
Mean anomaly
30.3348°
Eccentric anomaly
30.4248°
Mean motion
3.58467 °/min
Orbital period
100.43 mins
BSTAR
0.0022533
Loading maneuver chart data...
Computing Atmospheric mass density...
Loading historical data...
Loading historical data...
Loading historical data...
Loading historical data...
Loading historical data...
Loading historical data...
Loading historical data...

Documentation

Showing up to 5 results
|